Weather History for KFWA - April, 2014

Change the Weather History Date:

Saturday, April 12, 2014

  Actual Average Record
Temperature  
Mean Temperature 60 °F 49 °F  
Max Temperature 77 °F 60 °F 86 °F (1930)
Min Temperature 42 °F 38 °F 16 °F (1940)
Degree Days  
Heating Degree Days 5 16  
Month to date heating degree days 201 222  
Since 1 July heating degree days 6521 5646  
Cooling Degree Days 0 0  
Month to date cooling degree days 0 0  
Year to date cooling degree days 0 0  
Growing Degree Days 10 (Base 50)    
Moisture  
Dew Point 44 °F    
Average Humidity 55    
Maximum Humidity 72    
Minimum Humidity 37    
Precipitation  
Precipitation 0.00 in 0.12 in 1.36 in (1972)
Month to date precipitation 2.84 1.44  
Year to date precipitation 10.82 8.45  
Snow  
Snow 0.00 in 0.00 in 3.70 in (1973)
Month to date snowfall T 0.6  
Since 1 July snowfall 73.6 33.1  
Snow Depth 0.00 in    
Sea Level Pressure  
Sea Level Pressure 29.98 in    
Wind  
Wind Speed 13 mph (South)    
Max Wind Speed 28 mph    
Max Gust Speed 36 mph    
Visibility 10 miles    
Events      
T = Trace of Precipitation, MM = Missing Value Source: NWS Daily Summary

Daily Weather History Graph

Daily Weather History Graph

Search for Another Location

Airport or City:

Trip Planner

Search our weather history database for the weather conditions in past years. The results will help you decide how hot, cold, wet, or windy it might be!

Date:

Astronomy

Apr. 12, 2014 Rise Set
Actual Time 7:06 AM EDT 8:17 PM EDT
Civil Twilight 6:38 AM EDT 8:45 PM EDT
Nautical Twilight 6:04 AM EDT 9:19 PM EDT
Astronomical Twilight 5:28 AM EDT 9:55 PM EDT
Moon 5:54 PM EDT (4/12) 5:33 AM EDT (4/12)
Length of Visible Light 14h 07m
Length of Day
13h 11m
Waxing Gibbous, 93% of the Moon is Illuminated
Apr 12
Waxing Gibbous
Apr 15
Full
Apr 22
Last Quarter
Apr 29
New
May 6
First Quarter

Hourly Weather History & Observations

Time (EDT) Temp. Windchill Dew Point Humidity Pressure Visibility Wind Dir Wind Speed Gust Speed Precip Events Conditions
12:54 AM 48.9 °F - 37.0 °F 64% 30.07 in 10.0 mi SSW 9.2 mph - N/A   Mostly Cloudy
1:54 AM 48.0 °F - 37.0 °F 66% 30.07 in 10.0 mi SSW 8.1 mph - N/A   Mostly Cloudy
2:54 AM 46.0 °F 42.5 °F 36.0 °F 68% 30.08 in 10.0 mi SW 6.9 mph - N/A   Scattered Clouds
3:54 AM 46.0 °F 42.5 °F 36.0 °F 68% 30.09 in 10.0 mi SSW 6.9 mph - N/A   Scattered Clouds
4:54 AM 46.0 °F - 36.0 °F 68% 30.09 in 10.0 mi Calm Calm - N/A   Scattered Clouds
5:54 AM 44.1 °F 42.5 °F 36.0 °F 73% 30.09 in 10.0 mi SSE 3.5 mph - N/A   Mostly Cloudy
6:54 AM 45.0 °F 41.2 °F 35.1 °F 68% 30.10 in 10.0 mi South 6.9 mph - N/A   Scattered Clouds
7:54 AM 46.9 °F - 36.0 °F 66% 30.11 in 10.0 mi South 6.9 mph - N/A   Scattered Clouds
8:54 AM 55.0 °F - 37.0 °F 51% 30.09 in 10.0 mi South 13.8 mph - N/A   Mostly Cloudy
9:54 AM 61.0 °F - 37.9 °F 42% 30.09 in 10.0 mi South 16.1 mph - N/A   Mostly Cloudy
10:54 AM 63.0 °F - 39.9 °F 43% 30.08 in 10.0 mi South 15.0 mph - N/A   Mostly Cloudy
11:54 AM 66.9 °F - 39.9 °F 37% 30.05 in 10.0 mi South 17.3 mph - N/A   Mostly Cloudy
12:54 PM 71.1 °F - 46.0 °F 41% 30.02 in 10.0 mi South 20.7 mph 29.9 mph N/A   Mostly Cloudy
1:54 PM 73.0 °F - 51.1 °F 46% 29.97 in 10.0 mi South 21.9 mph 29.9 mph N/A   Mostly Cloudy
2:54 PM 75.0 °F - 51.1 °F 43% 29.93 in 10.0 mi SSW 20.7 mph 28.8 mph N/A   Mostly Cloudy
3:54 PM 75.9 °F - 50.0 °F 40% 29.91 in 10.0 mi SSW 23.0 mph 28.8 mph N/A   Mostly Cloudy
4:54 PM 73.9 °F - 51.1 °F 45% 29.88 in 10.0 mi SSW 23.0 mph 33.4 mph N/A   Mostly Cloudy
5:54 PM 75.0 °F - 52.0 °F 44% 29.85 in 10.0 mi SSW 19.6 mph 25.3 mph N/A   Mostly Cloudy
6:54 PM 75.0 °F - 50.0 °F 41% 29.83 in 10.0 mi South 26.5 mph 32.2 mph N/A   Mostly Cloudy
7:54 PM 71.1 °F - 51.1 °F 49% 29.82 in 10.0 mi SSW 17.3 mph - N/A   Mostly Cloudy
8:54 PM 69.1 °F - 51.1 °F 53% 29.82 in 10.0 mi SSW 16.1 mph - N/A   Scattered Clouds
9:54 PM 64.9 °F - 50.0 °F 58% 29.84 in 10.0 mi SSW 9.2 mph - N/A   Scattered Clouds
10:54 PM 61.0 °F - 50.0 °F 67% 29.84 in 10.0 mi SSW 6.9 mph - N/A   Partly Cloudy
11:54 PM 57.9 °F - 48.9 °F 72% 29.82 in 10.0 mi South 8.1 mph - N/A   Partly Cloudy